sat.trackr.live / text

‹ back to catalog

STARLINK-34697

NORAD 64791 · 2025-150B

PAYLOAD ACTIVE UNKNOWN

§ Identity

Operator
Country
US
Launch date
2025-07-16
Launch site
AFWTR
Launch vehicle
Mass (kg)
RCS (m²)

Purposes: comms

External: N2YO · Heavens-Above · Gunter

§ Orbital elements

Epoch: 2026-09-20T14:13:34.762080Z

Period
96.10 min
Inclination
70.0034°
Eccentricity
0.0003321
Mean motion
14.98370373 rev/d
Perigee alt
569.6 km
Apogee alt
574.2 km
Semi-major
6,950.1 km
B*
-1.5915e-3
RAAN
2.9484°
Arg perigee
252.6633°
Mean anomaly
107.4163°
Rev number
6,571

§ Raw data

STARLINK-346971 64791U 25150B   26263.59276345 -.00019051  00000+0 -15915-2 0  99902 64791  70.0034   2.9484 0003321 252.6633 107.4163 14.98370373 65712

JSON: /api/v1/satellites/64791 · /tle

For live sub-satellite position, see the globe view (requires WebGL).

§ Visibility from observer

Set your observer location to see the next 7 days of passes ≥ 10°. The values pass through the URL so the page stays shareable.

No JS? Fill the form by hand. The geolocation button needs JavaScript.